TimeCDT,TemperatureF,Dew PointF,Humidity,Sea Level PressureIn,VisibilityMPH,Wind Direction,Wind SpeedMPH,Gust SpeedMPH,PrecipitationIn,Events,Conditions,WindDirDegrees,DateUTC
12:53 AM,64.0,59.0,84,29.95,10.0,Calm,Calm,-,N/A,,Clear,0,2013-06-07 05:53:00
1:53 AM,63.0,59.0,87,29.96,10.0,Calm,Calm,-,N/A,,Clear,0,2013-06-07 06:53:00
2:53 AM,63.0,57.9,84,29.96,10.0,Calm,Calm,-,N/A,,Clear,0,2013-06-07 07:53:00
3:53 AM,62.1,57.9,86,29.96,10.0,Calm,Calm,-,N/A,,Clear,0,2013-06-07 08:53:00
4:53 AM,62.1,57.9,86,29.95,10.0,NNW,4.6,-,N/A,,Clear,340,2013-06-07 09:53:00
5:53 AM,61.0,57.0,87,29.95,10.0,Calm,Calm,-,N/A,,Clear,0,2013-06-07 10:53:00
6:53 AM,62.1,57.0,84,29.96,10.0,North,6.9,-,N/A,,Clear,360,2013-06-07 11:53:00
7:53 AM,66.0,59.0,78,29.95,10.0,NNE,5.8,-,N/A,,Clear,20,2013-06-07 12:53:00
8:53 AM,70.0,61.0,73,29.96,10.0,Calm,Calm,-,N/A,,Unknown,0,2013-06-07 13:53:00
9:53 AM,73.9,57.9,57,29.98,10.0,West,4.6,-,N/A,,Clear,270,2013-06-07 14:53:00
10:53 AM,75.9,55.0,48,29.97,10.0,SSE,4.6,-,N/A,,Clear,160,2013-06-07 15:53:00
11:53 AM,79.0,55.0,44,29.97,10.0,South,6.9,-,N/A,,Clear,170,2013-06-07 16:53:00
12:53 PM,80.1,53.1,39,29.95,10.0,SE,5.8,-,N/A,,Clear,140,2013-06-07 17:53:00
1:53 PM,82.0,52.0,35,29.94,10.0,ESE,9.2,16.1,N/A,,Clear,120,2013-06-07 18:53:00
2:53 PM,82.9,54.0,37,29.91,10.0,Variable,4.6,-,N/A,,Mostly Cloudy,0,2013-06-07 19:53:00
3:53 PM,82.9,53.1,36,29.90,10.0,Variable,6.9,-,N/A,,Partly Cloudy,0,2013-06-07 20:53:00
4:53 PM,82.9,53.1,36,29.87,10.0,SSE,9.2,-,N/A,,Scattered Clouds,150,2013-06-07 21:53:00
5:53 PM,82.9,53.1,36,29.86,10.0,Variable,6.9,-,N/A,,Scattered Clouds,0,2013-06-07 22:53:00
6:53 PM,82.0,53.1,37,29.85,10.0,SSE,10.4,-,N/A,,Clear,150,2013-06-07 23:53:00
7:53 PM,80.1,55.0,42,29.84,10.0,SSE,6.9,-,N/A,,Clear,150,2013-06-08 00:53:00
8:53 PM,75.9,55.9,50,29.85,10.0,SE,9.2,-,N/A,,Clear,130,2013-06-08 01:53:00
9:53 PM,73.0,55.9,55,29.83,10.0,SE,11.5,-,N/A,,Clear,130,2013-06-08 02:53:00
10:53 PM,71.1,57.0,61,29.86,10.0,SE,9.2,-,N/A,,Clear,140,2013-06-08 03:53:00
11:53 PM,69.1,57.0,65,29.88,10.0,SSE,6.9,-,N/A,,Clear,150,2013-06-08 04:53:00